Time,TemperatureF,DewpointF,PressureIn,WindDirection,WindDirectionDegrees,WindSpeedMPH,WindSpeedGustMPH,Humidity,HourlyPrecipIn,Conditions,Clouds,dailyrainin,SoftwareType,DateUTC
2013-04-30 00:03:00,65.2,61.0,29.75,SSW,204,0.0,2.0,85,0.00,,,0.00,weatherlink.com 1.10,2013-04-30 05:03:00,
2013-04-30 00:18:00,64.7,61.0,29.75,SE,134,0.0,2.0,86,0.00,,,0.00,weatherlink.com 1.10,2013-04-30 05:18:00,
2013-04-30 00:33:00,64.5,61.0,29.75,SSE,164,0.0,3.0,87,0.00,,,0.00,weatherlink.com 1.10,2013-04-30 05:33:00,
2013-04-30 00:48:00,63.9,60.0,29.75,SSE,160,3.0,4.0,88,0.00,,,0.00,weatherlink.com 1.10,2013-04-30 05:48:00,
2013-04-30 01:03:00,63.8,61.0,29.74,SSW,200,0.0,3.0,89,0.00,,,0.00,weatherlink.com 1.10,2013-04-30 06:03:00,
2013-04-30 01:18:00,63.7,61.0,29.74,SSE,161,0.0,3.0,90,0.00,,,0.00,weatherlink.com 1.10,2013-04-30 06:18:00,
2013-04-30 01:33:00,63.4,61.0,29.74,ESE,105,3.0,5.0,90,0.00,,,0.00,weatherlink.com 1.10,2013-04-30 06:33:00,
2013-04-30 01:49:00,63.5,61.0,29.74,SSE,157,1.0,3.0,90,0.00,,,0.00,weatherlink.com 1.10,2013-04-30 06:49:00,
2013-04-30 02:04:00,63.5,61.0,29.74,SSE,152,1.0,4.0,91,0.00,,,0.00,weatherlink.com 1.10,2013-04-30 07:04:00,
2013-04-30 02:19:00,63.0,60.0,29.74,SSW,204,0.0,2.0,91,0.00,,,0.00,weatherlink.com 1.10,2013-04-30 07:19:00,
2013-04-30 02:34:00,62.7,61.0,29.74,SE,125,0.0,3.0,93,0.00,,,0.00,weatherlink.com 1.10,2013-04-30 07:34:00,
2013-04-30 02:49:00,62.5,60.0,29.75,SSE,159,0.0,2.0,92,0.00,,,0.00,weatherlink.com 1.10,2013-04-30 07:49:00,
2013-04-30 03:04:00,62.0,60.0,29.75,South,177,0.0,2.0,93,0.00,,,0.00,weatherlink.com 1.10,2013-04-30 08:04:00,
2013-04-30 03:19:00,61.9,60.0,29.76,SW,225,0.0,2.0,94,0.00,,,0.00,weatherlink.com 1.10,2013-04-30 08:19:00,
2013-04-30 03:34:00,61.5,60.0,29.76,SSW,204,0.0,1.0,94,0.00,,,0.00,weatherlink.com 1.10,2013-04-30 08:34:00,
2013-04-30 03:49:00,61.1,59.0,29.76,SSW,205,0.0,1.0,94,0.00,,,0.00,weatherlink.com 1.10,2013-04-30 08:49:00,
2013-04-30 04:04:00,60.8,59.0,29.76,SSE,163,0.0,3.0,95,0.00,,,0.00,weatherlink.com 1.10,2013-04-30 09:04:00,
2013-04-30 04:19:00,60.5,59.0,29.76,South,181,0.0,1.0,96,0.00,,,0.00,weatherlink.com 1.10,2013-04-30 09:19:00,
2013-04-30 04:34:00,60.5,59.0,29.77,SE,141,0.0,2.0,96,0.00,,,0.00,weatherlink.com 1.10,2013-04-30 09:34:00,
2013-04-30 04:49:00,60.6,60.0,29.77,SSW,193,0.0,2.0,96,0.00,,,0.00,weatherlink.com 1.10,2013-04-30 09:49:00,
2013-04-30 05:04:00,60.2,59.0,29.77,SSW,193,0.0,1.0,96,0.00,,,0.00,weatherlink.com 1.10,2013-04-30 10:04:00,
2013-04-30 05:19:00,59.9,59.0,29.77,SSW,193,0.0,0.0,96,0.00,,,0.00,weatherlink.com 1.10,2013-04-30 10:19:00,
2013-04-30 05:34:00,59.6,59.0,29.78,SSW,193,0.0,0.0,96,0.00,,,0.00,weatherlink.com 1.10,2013-04-30 10:34:00,
2013-04-30 05:49:00,59.3,59.0,29.78,SSW,193,0.0,0.0,97,0.00,,,0.00,weatherlink.com 1.10,2013-04-30 10:49:00,
2013-04-30 06:04:00,59.1,58.0,29.78,SSE,160,0.0,0.0,97,0.00,,,0.00,weatherlink.com 1.10,2013-04-30 11:04:00,
2013-04-30 06:19:00,59.1,58.0,29.79,SSE,160,0.0,0.0,97,0.00,,,0.00,weatherlink.com 1.10,2013-04-30 11:19:00,
2013-04-30 06:34:00,59.6,59.0,29.80,SSE,159,0.0,2.0,98,0.00,,,0.00,weatherlink.com 1.10,2013-04-30 11:34:00,
2013-04-30 06:49:00,60.4,60.0,29.80,WSW,240,0.0,2.0,97,0.00,,,0.00,weatherlink.com 1.10,2013-04-30 11:49:00,
2013-04-30 07:04:00,61.6,61.0,29.81,SSE,158,3.0,4.0,97,0.00,,,0.00,weatherlink.com 1.10,2013-04-30 12:04:00,
2013-04-30 07:19:00,63.5,62.0,29.81,SSE,160,0.0,1.0,95,0.00,,,0.00,weatherlink.com 1.10,2013-04-30 12:19:00,
2013-04-30 07:34:00,65.4,62.0,29.81,SSE,152,1.0,3.0,89,0.00,,,0.00,weatherlink.com 1.10,2013-04-30 12:34:00,
2013-04-30 07:49:00,66.2,62.0,29.82,SSE,151,2.0,4.0,85,0.00,,,0.00,weatherlink.com 1.10,2013-04-30 12:49:00,
2013-04-30 08:04:00,67.3,62.0,29.82,SW,222,3.0,5.0,83,0.00,,,0.00,weatherlink.com 1.10,2013-04-30 13:04:00,
2013-04-30 08:19:00,68.9,63.0,29.82,South,172,3.0,4.0,81,0.00,,,0.00,weatherlink.com 1.10,2013-04-30 13:19:00,
2013-04-30 08:34:00,70.2,63.0,29.82,SE,137,3.0,9.0,77,0.00,,,0.00,weatherlink.com 1.10,2013-04-30 13:34:00,
2013-04-30 08:50:00,71.6,63.0,29.82,WSW,241,1.0,9.0,73,0.00,,,0.00,weatherlink.com 1.10,2013-04-30 13:50:00,
2013-04-30 09:05:00,72.6,63.0,29.82,SE,132,2.0,9.0,71,0.00,,,0.00,weatherlink.com 1.10,2013-04-30 14:05:00,
2013-04-30 09:20:00,73.8,62.0,29.82,SSE,162,2.0,7.0,67,0.00,,,0.00,weatherlink.com 1.10,2013-04-30 14:20:00,
2013-04-30 09:35:00,74.3,62.0,29.82,WSW,255,4.0,10.0,65,0.00,,,0.00,weatherlink.com 1.10,2013-04-30 14:35:00,
2013-04-30 09:50:00,74.8,62.0,29.82,WNW,284,2.0,7.0,65,0.00,,,0.00,weatherlink.com 1.10,2013-04-30 14:50:00,
2013-04-30 10:05:00,75.3,62.0,29.82,WSW,255,1.0,6.0,64,0.00,,,0.00,weatherlink.com 1.10,2013-04-30 15:05:00,
2013-04-30 10:20:00,76.6,63.0,29.82,ESE,119,2.0,7.0,62,0.00,,,0.00,weatherlink.com 1.10,2013-04-30 15:20:00,
2013-04-30 10:35:00,77.9,63.0,29.82,ENE,65,1.0,7.0,61,0.00,,,0.00,weatherlink.com 1.10,2013-04-30 15:35:00,
2013-04-30 10:50:00,79.0,62.0,29.82,SE,136,2.0,8.0,57,0.00,,,0.00,weatherlink.com 1.10,2013-04-30 15:50:00,
2013-04-30 11:05:00,79.2,62.0,29.82,South,181,1.0,9.0,56,0.00,,,0.00,weatherlink.com 1.10,2013-04-30 16:05:00,
2013-04-30 11:20:00,79.8,63.0,29.82,SSE,152,4.0,9.0,56,0.00,,,0.00,weatherlink.com 1.10,2013-04-30 16:20:00,
2013-04-30 11:35:00,80.4,63.0,29.82,WSW,255,4.0,7.0,56,0.00,,,0.00,weatherlink.com 1.10,2013-04-30 16:35:00,
2013-04-30 11:50:00,80.8,62.0,29.82,NE,52,4.0,8.0,53,0.00,,,0.00,weatherlink.com 1.10,2013-04-30 16:50:00,
2013-04-30 12:05:00,81.5,62.0,29.81,ESE,120,2.0,7.0,52,0.00,,,0.00,weatherlink.com 1.10,2013-04-30 17:05:00,
2013-04-30 12:20:00,82.4,63.0,29.81,SSE,162,1.0,7.0,52,0.00,,,0.00,weatherlink.com 1.10,2013-04-30 17:20:00,
2013-04-30 12:35:00,83.0,59.0,29.80,SSE,158,2.0,11.0,44,0.00,,,0.00,weatherlink.com 1.10,2013-04-30 17:35:00,
2013-04-30 12:50:00,84.0,59.0,29.80,SE,131,3.0,10.0,43,0.00,,,0.00,weatherlink.com 1.10,2013-04-30 17:50:00,
2013-04-30 13:05:00,85.0,59.0,29.79,SE,134,6.0,8.0,42,0.00,,,0.00,weatherlink.com 1.10,2013-04-30 18:05:00,
2013-04-30 13:20:00,85.5,57.0,29.79,SW,214,3.0,11.0,38,0.00,,,0.00,weatherlink.com 1.10,2013-04-30 18:20:00,
2013-04-30 13:50:00,86.6,57.0,29.79,SSW,207,3.0,8.0,37,0.00,,,0.00,weatherlink.com 1.10,2013-04-30 18:50:00,
2013-04-30 14:06:00,86.2,58.0,29.78,SE,127,4.0,8.0,38,0.00,,,0.00,weatherlink.com 1.10,2013-04-30 19:06:00,
2013-04-30 14:21:00,86.7,55.0,29.78,SW,222,4.0,10.0,34,0.00,,,0.00,weatherlink.com 1.10,2013-04-30 19:21:00,
2013-04-30 14:36:00,86.6,54.0,29.78,West,260,3.0,11.0,33,0.00,,,0.00,weatherlink.com 1.10,2013-04-30 19:36:00,
2013-04-30 14:51:00,87.0,55.0,29.78,South,170,2.0,9.0,34,0.00,,,0.00,weatherlink.com 1.10,2013-04-30 19:51:00,
2013-04-30 15:06:00,86.9,57.0,29.77,SE,137,3.0,9.0,36,0.00,,,0.00,weatherlink.com 1.10,2013-04-30 20:06:00,
2013-04-30 15:21:00,87.3,57.0,29.76,SE,134,3.0,8.0,36,0.00,,,0.00,weatherlink.com 1.10,2013-04-30 20:21:00,
2013-04-30 15:36:00,87.4,58.0,29.76,South,170,4.0,11.0,37,0.00,,,0.00,weatherlink.com 1.10,2013-04-30 20:36:00,
2013-04-30 15:51:00,87.6,56.0,29.75,ESE,120,3.0,9.0,34,0.00,,,0.00,weatherlink.com 1.10,2013-04-30 20:51:00,
2013-04-30 16:06:00,87.2,57.0,29.75,South,188,4.0,10.0,36,0.00,,,0.00,weatherlink.com 1.10,2013-04-30 21:06:00,
2013-04-30 16:21:00,87.8,56.0,29.75,South,181,5.0,12.0,34,0.00,,,0.00,weatherlink.com 1.10,2013-04-30 21:21:00,
2013-04-30 16:36:00,88.1,56.0,29.76,WSW,257,4.0,9.0,34,0.00,,,0.00,weatherlink.com 1.10,2013-04-30 21:36:00,
2013-04-30 16:51:00,87.7,54.0,29.76,WNW,283,1.0,9.0,32,0.00,,,0.00,weatherlink.com 1.10,2013-04-30 21:51:00,
2013-04-30 17:06:00,87.3,56.0,29.76,South,181,4.0,10.0,35,0.00,,,0.00,weatherlink.com 1.10,2013-04-30 22:06:00,
2013-04-30 17:21:00,87.0,53.0,29.76,SSW,204,2.0,10.0,31,0.00,,,0.00,weatherlink.com 1.10,2013-04-30 22:21:00,
2013-04-30 17:36:00,87.1,52.0,29.76,West,270,1.0,9.0,30,0.00,,,0.00,weatherlink.com 1.10,2013-04-30 22:36:00,
2013-04-30 17:51:00,87.0,54.0,29.77,SE,143,2.0,9.0,32,0.00,,,0.00,weatherlink.com 1.10,2013-04-30 22:51:00,
2013-04-30 18:06:00,86.9,55.0,29.77,ESE,107,6.0,10.0,34,0.00,,,0.00,weatherlink.com 1.10,2013-04-30 23:06:00,
2013-04-30 18:21:00,85.4,56.0,29.77,SSE,158,3.0,10.0,36,0.00,,,0.00,weatherlink.com 1.10,2013-04-30 23:21:00,
2013-04-30 18:36:00,84.5,59.0,29.77,SE,126,7.0,13.0,42,0.00,,,0.00,weatherlink.com 1.10,2013-04-30 23:36:00,
2013-04-30 18:51:00,82.4,61.0,29.77,SE,143,3.0,11.0,48,0.00,,,0.00,weatherlink.com 1.10,2013-04-30 23:51:00,
2013-04-30 19:06:00,80.5,60.0,29.78,South,178,7.0,12.0,50,0.00,,,0.00,weatherlink.com 1.10,2013-05-01 00:06:00,
2013-04-30 19:21:00,79.2,60.0,29.79,SE,136,3.0,14.0,52,0.00,,,0.00,weatherlink.com 1.10,2013-05-01 00:21:00,
2013-04-30 19:36:00,78.1,59.0,29.79,SSE,162,9.0,13.0,53,0.00,,,0.00,weatherlink.com 1.10,2013-05-01 00:36:00,
2013-04-30 19:51:00,77.4,59.0,29.80,SE,145,4.0,12.0,54,0.00,,,0.00,weatherlink.com 1.10,2013-05-01 00:51:00,
2013-04-30 20:06:00,76.6,60.0,29.80,SSE,155,4.0,11.0,56,0.00,,,0.00,weatherlink.com 1.10,2013-05-01 01:06:00,
2013-04-30 20:21:00,75.8,60.0,29.81,SE,132,6.0,12.0,58,0.00,,,0.00,weatherlink.com 1.10,2013-05-01 01:21:00,
2013-04-30 20:36:00,75.2,60.0,29.82,SSE,159,10.0,10.0,60,0.00,,,0.00,weatherlink.com 1.10,2013-05-01 01:36:00,
2013-04-30 20:51:00,74.6,60.0,29.82,SE,138,4.0,12.0,61,0.00,,,0.00,weatherlink.com 1.10,2013-05-01 01:51:00,
2013-04-30 21:07:00,74.2,60.0,29.83,SE,129,2.0,12.0,61,0.00,,,0.00,weatherlink.com 1.10,2013-05-01 02:07:00,
2013-04-30 21:21:00,74.0,60.0,29.84,SE,128,6.0,12.0,61,0.00,,,0.00,weatherlink.com 1.10,2013-05-01 02:21:00,
2013-04-30 21:36:00,73.4,59.0,29.85,SE,136,5.0,9.0,61,0.00,,,0.00,weatherlink.com 1.10,2013-05-01 02:36:00,
2013-04-30 21:51:00,72.7,59.0,29.86,SSE,159,5.0,7.0,62,0.00,,,0.00,weatherlink.com 1.10,2013-05-01 02:51:00,
2013-04-30 22:06:00,72.2,58.0,29.86,SE,132,3.0,8.0,62,0.00,,,0.00,weatherlink.com 1.10,2013-05-01 03:06:00,
2013-04-30 22:21:00,71.8,58.0,29.87,SE,136,7.0,7.0,63,0.00,,,0.00,weatherlink.com 1.10,2013-05-01 03:21:00,
2013-04-30 22:36:00,71.6,58.0,29.88,SE,143,1.0,9.0,63,0.00,,,0.00,weatherlink.com 1.10,2013-05-01 03:36:00,
2013-04-30 22:51:00,70.9,58.0,29.88,SSE,148,1.0,7.0,65,0.00,,,0.00,weatherlink.com 1.10,2013-05-01 03:51:00,
2013-04-30 23:06:00,70.6,59.0,29.88,SE,125,4.0,7.0,67,0.00,,,0.00,weatherlink.com 1.10,2013-05-01 04:06:00,
2013-04-30 23:21:00,70.1,59.0,29.88,SSE,148,3.0,9.0,68,0.00,,,0.00,weatherlink.com 1.10,2013-05-01 04:21:00,
2013-04-30 23:36:00,69.7,59.0,29.89,SE,137,3.0,8.0,68,0.00,,,0.00,weatherlink.com 1.10,2013-05-01 04:36:00,
2013-04-30 23:51:00,69.1,59.0,29.89,SE,124,2.0,7.0,70,0.00,,,0.00,weatherlink.com 1.10,2013-05-01 04:51:00,